{"data":{"norad_id":48973,"intl_designator":"2021-060G","name":"ONEWEB-0255","alt_names":[],"object_type":"PAYLOAD","status":"ACTIVE","operator":null,"country":"UK","launch_date":"2021-07-01","launch_site_code":"VOSTO","launch_vehicle":null,"mission":null,"orbit_class":"UNKNOWN","rcs_meters":null,"size_class":null,"mass_kg":null,"dimensions":null,"purposes":["comms"],"wikipedia_slug":null,"has_3d_model":false,"image_url":null,"decayed_at":null,"tle_current":{"epoch":"2026-09-20T04:37:01.979328Z","epoch_age_seconds":48509,"freshness":"FRESH","line1":"1 48973U 21060G   26263.19238402 -.00000007  00000+0 -50608-4 0  9999","line2":"2 48973  87.9156 209.9181 0001947  71.9093 288.2250 13.16594122252166","mean_motion":13.16594122,"eccentricity":0.0001947,"inclination_deg":87.9156,"raan_deg":209.9181,"arg_perigee_deg":71.9093,"mean_anomaly_deg":288.225,"bstar":-5.0608e-5,"rev_number":25216,"period_min":109.37311476163,"perigee_km":1196.2821583705,"apogee_km":1199.2322115661,"semimajor_km":7575.8941849683,"source":"CELESTRAK","updated_at":"2026-09-20T09:00:44.624115Z"}}}